User: anonymous   Login
Location: Fort Wayne
(41.1310°N, 85.1290°W)
Time: 09:08:53
(UTC-05:00)
Language:

ISS - Orbit

View from above orbital plane
View from above orbital plane
View from above satellite
View from above satellite

Ground track
Ground track

The orbit data is extracted from the following two-line orbital elements,

1 25544U 98067A   15065.29189689  .00015240  00000-0  23066-3 0  9991
2 25544 051.6443 237.9713 0008885 075.5594 343.8023 15.54846294932028
Epoch (UTC): 06 March 2015 07:00:19
Eccentricity: 0.0008885
inclination: 51.6443°
perigee height: 396 km
apogee height: 408 km
right ascension of ascending node: 237.9713°
argument of perigee: 75.5594°
revolutions per day: 15.54846294
mean anomaly at epoch: 343.8023°
orbit number at epoch: 93202

The dashed part of the orbit path shows where the satellite is in the earth's shadow,  

DLR